Terminal Aerodrome Forecast
Issued by NWS Chicago, IL

Home | Current Version | Previous Version | Text Only | Print | Product List | Glossary On
Versions: 1 2 3 4 5 6 7 8 9 10 11 12 13 14 15 16 17 18 19 20 21 22 23 24 25 26 27 28 29 30 31 32
985
FTUS43 KLOT 221138
TAFRFD
TAF
KRFD 221138Z 2212/2312 VRB02KT 1/4SM FG VV002
     FM221600 35005KT 2SM BR OVC005
     FM221800 36008KT 6SM BR OVC009
     FM230500 35008KT 3SM BR OVC007=

USA.gov is the U.S. government's official web portal to all federal, state and local government web resources and services.